Location: Saint-Palais-sur-Mer
(45.6429°N, 1.0859°W)
Time: 15:20:53
(UTC+02:00)

ISS - Visible Passes

Search period start: 18 September 2019 00:00
Search period end: 28 September 2019 00:00
Orbit: 411 x 421 km, 51.6° (Epoch: 18 September)

Date Brightness Start Highest point End Pass type
(mag) Time Alt. Az. Time Alt. Az. Time Alt. Az.
18 Sep -1.8 21:23:41 10° S 21:24:55 15° SSE 21:24:55 15° SSE visible
19 Sep -1.5 20:37:27 10° SE 20:37:38 10° SE 20:37:49 10° SE visible
19 Sep -2.2 22:10:30 10° SW 22:12:12 27° SW 22:12:12 27° SW visible
20 Sep -3.3 21:22:14 10° SW 21:25:22 40° SE 21:26:18 31° ESE visible
20 Sep -0.6 22:58:55 10° W 22:59:14 12° W 22:59:14 12° W visible
21 Sep -2.5 20:34:12 10° SSW 20:36:59 25° SE 20:39:46 10° E visible
21 Sep -3.0 22:10:14 10° WSW 22:13:05 52° WNW 22:13:05 52° WNW visible
22 Sep -3.8 21:21:39 10° WSW 21:24:58 86° NW 21:26:46 25° ENE visible
22 Sep -0.6 22:59:01 10° WNW 22:59:41 14° WNW 22:59:41 14° WNW visible
23 Sep -3.7 20:33:11 10° SW 20:36:28 61° SSE 20:39:46 10° ENE visible
23 Sep -2.4 22:10:15 10° W 22:13:13 35° NNW 22:13:13 35° NNW visible
24 Sep -2.8 21:21:30 10° W 21:24:43 45° NNW 21:26:40 20° NE visible
24 Sep -0.4 22:59:02 10° WNW 22:59:34 13° NW 22:59:34 13° NW visible
25 Sep -3.4 20:32:48 10° WSW 20:36:06 62° NNW 20:39:24 10° ENE visible
25 Sep -2.0 22:10:18 10° WNW 22:12:55 28° NNW 22:12:55 28° NNW visible
26 Sep -2.3 21:21:31 10° WNW 21:24:32 31° N 21:26:13 19° NE visible
26 Sep -0.3 22:58:49 10° NW 22:59:06 12° NW 22:59:06 12° NW visible
27 Sep -2.5 20:32:42 10° W 20:35:50 36° NNW 20:38:57 10° NE visible
27 Sep -1.8 22:10:10 10° WNW 22:12:22 26° NNW 22:12:22 26° NNW visible
